EW0868 Weather Reports


Display with metric or nautical units.
time (UTC)temp
F
wind
direction
speed
MPH
gust
MPH
rain 1hr
in
rain 24hr
in
rain mn
in
humidity
%
barometer
mb
20260504213053 63 246 2.0 12.0 0.00 0.00 0.00 79 1012.7
20260504211544 64 300 6.0 12.0 0.00 0.00 0.00 77 1012.7
20260504210034 65 286 3.0 8.0 0.00 0.00 0.00 78 1012.6
20260504204528 65 240 2.0 9.0 0.00 0.00 0.00 77 1012.7
20260504203043 65 275 1.0 7.0 0.00 0.00 0.00 78 1012.7
20260504201538 65 254 3.0 8.0 0.00 0.00 0.00 77 1012.7
20260504200046 65 256 4.0 9.0 0.00 0.00 0.00 77 1012.7
20260504194544 64 200 3.0 8.0 0.00 0.00 0.00 78 1012.7
20260504193037 64 273 0.0 9.0 0.00 0.00 0.00 78 1012.7
20260504191535 63 254 4.0 9.0 0.00 0.00 0.00 79 1012.7
20260504190043 62 248 0.0 8.0 0.00 0.00 0.00 79 1012.8
20260504184535 62 246 4.0 10.0 0.00 0.00 0.00 80 1012.9
20260504183033 61 254 1.0 7.0 0.00 0.00 0.00 80 1013.0
20260504181546 60 227 3.0 6.0 0.00 0.00 0.00 80 1013.0
20260504180038 60 254 1.0 7.0 0.00 0.00 0.00 81 1012.8
20260504174552 59 360 2.0 6.0 0.00 0.00 0.00 81 1012.9
20260504173031 59 225 1.0 4.0 0.00 0.00 0.00 82 1012.9
20260504171544 58 243 2.0 6.0 0.00 0.00 0.00 82 1012.8
20260504081601 56 121 0.0 0.0 0.00 0.00 0.00 83 1008.9
20260504044538 64 121 0.0 0.0 0.00 0.00 0.00 75 1008.6
20260504043032 65 121 0.0 0.0 0.00 0.00 0.00 74 1008.7
20260504041528 66 117 0.0 0.0 0.00 0.00 0.00 74 1008.6
20260504040036 67 117 0.0 0.0 0.00 0.00 0.00 72 1008.5
20260504034533 68 243 0.0 0.0 0.00 0.00 0.00 70 1008.2
20260504033027 70 197 0.0 1.0 0.00 0.00 0.00 67 1008.2
20260504031540 71 207 0.0 0.0 0.00 0.00 0.00 66 1008.0
20260504030033 71 205 0.0 4.0 0.00 0.00 0.00 64 1008.1
20260504024546 72 205 0.0 0.0 0.00 0.00 0.00 63 1008.1
20260504023043 72 209 0.0 4.0 0.00 0.00 0.00 64 1008.1
20260504021535 73 213 0.0 4.0 0.00 0.00 0.00 62 1008.1
20260504020049 74 207 0.0 3.0 0.00 0.00 0.00 61 1008.1
20260504014542 74 211 0.0 3.0 0.00 0.00 0.00 60 1008.2
20260504013035 75 360 0.0 2.0 0.00 0.00 0.00 60 1008.3
20260504011534 76 203 0.0 4.0 0.00 0.00 0.00 59 1008.4
20260504010042 77 228 0.0 3.0 0.00 0.00 0.00 60 1008.5
20260504004540 76 204 0.0 4.0 0.00 0.00 0.00 61 1008.6
20260504003034 76 217 0.0 1.0 0.00 0.00 0.00 61 1008.6
20260504001530 76 242 1.0 3.0 0.00 0.00 0.00 62 1008.7
20260504000038 78 360 2.0 7.0 0.00 0.00 0.00 58 1008.8
20260503234532 78 210 1.0 4.0 0.00 0.00 0.00 57 1008.9
20260503233027 80 219 1.0 4.0 0.00 0.00 0.00 55 1009.0
20260503231539 81 245 0.0 3.0 0.00 0.00 0.00 56 1009.1
20260503230032 81 360 2.0 5.0 0.00 0.00 0.00 55 1009.4
20260503224546 81 275 3.0 7.0 0.00 0.00 0.00 53 1009.5
20260503223043 83 242 3.0 5.0 0.00 0.00 0.00 52 1009.6
20260503221537 86 211 5.0 8.0 0.00 0.00 0.00 46 1009.7
20260503220049 90 202 3.0 4.0 0.00 0.00 0.00 42 1009.9
20260503214542 0 360 2.0 4.0 0.00 0.00 0.00 39 1010.0